User: anonymous   Login
Location: Unspecified
(0.0000°N, 0.0000°E)
Time: 07:32:31
(UTC+00:00)
Language:

Cosmos 1447 - Orbit

View from above orbital plane
View from above orbital plane
View from above satellite
View from above satellite

Ground track
Ground track

The orbit data is extracted from the following two-line orbital elements,

1 13916U 83021A   18015.23903671  .00000025  00000-0  97031-5 0  9992
2 13916  82.9469 117.0556 0038916 130.9598 257.4247 13.75062909746715
Epoch (UTC): 15 January 2018 05:44:12
Eccentricity: 0.0038916
inclination: 82.9469°
perigee height: 953 km
apogee height: 1010 km
right ascension of ascending node: 117.0556°
argument of perigee: 130.9598°
revolutions per day: 13.75062909
mean anomaly at epoch: 257.4247°
orbit number at epoch: 74671

The dashed part of the orbit path shows where the satellite is in the earth's shadow,  

DLR